TimeCDT,TemperatureF,Dew PointF,Humidity,Sea Level PressureIn,VisibilityMPH,Wind Direction,Wind SpeedMPH,Gust SpeedMPH,PrecipitationIn,Events,Conditions,WindDirDegrees,DateUTC
12:52 AM,80.1,55.9,43,29.78,10.0,SSE,8.1,-,N/A,,Clear,160,2013-09-01 05:52:00
1:52 AM,79.0,57.0,47,29.79,10.0,South,5.8,-,N/A,,Clear,170,2013-09-01 06:52:00
2:52 AM,79.0,57.0,47,29.80,10.0,SSE,6.9,-,N/A,,Clear,160,2013-09-01 07:52:00
3:52 AM,80.1,57.9,47,29.80,10.0,South,5.8,-,N/A,,Clear,170,2013-09-01 08:52:00
4:52 AM,80.1,57.9,47,29.81,10.0,SW,5.8,-,N/A,,Clear,220,2013-09-01 09:52:00
5:52 AM,77.0,59.0,54,29.82,10.0,South,3.5,-,N/A,,Clear,190,2013-09-01 10:52:00
6:52 AM,75.9,57.9,54,29.83,10.0,South,5.8,-,N/A,,Clear,180,2013-09-01 11:52:00
7:52 AM,77.0,59.0,54,29.84,10.0,South,4.6,-,N/A,,Clear,190,2013-09-01 12:52:00
8:52 AM,82.0,61.0,49,29.86,10.0,SSW,4.6,-,N/A,,Clear,210,2013-09-01 13:52:00
9:52 AM,89.1,61.0,39,29.86,10.0,WSW,8.1,-,N/A,,Clear,240,2013-09-01 14:52:00
10:52 AM,93.0,61.0,34,29.87,10.0,Variable,5.8,-,N/A,,Clear,0,2013-09-01 15:52:00
11:52 AM,96.1,61.0,31,29.87,10.0,WNW,3.5,-,N/A,,Clear,290,2013-09-01 16:52:00
12:52 PM,97.0,60.1,29,29.86,10.0,Variable,6.9,-,N/A,,Clear,0,2013-09-01 17:52:00
1:52 PM,97.0,57.9,27,29.84,10.0,Calm,Calm,-,N/A,,Clear,0,2013-09-01 18:52:00
2:52 PM,100.9,57.9,24,29.82,10.0,Variable,3.5,-,N/A,,Clear,0,2013-09-01 19:52:00
3:52 PM,98.1,55.0,24,29.79,10.0,Calm,Calm,-,N/A,,Scattered Clouds,0,2013-09-01 20:52:00
4:52 PM,100.0,55.9,23,29.78,10.0,South,5.8,-,N/A,,Clear,190,2013-09-01 21:52:00
5:52 PM,99.0,55.9,24,29.77,10.0,SE,12.7,-,N/A,,Overcast,130,2013-09-01 22:52:00
6:52 PM,97.0,57.0,26,29.77,10.0,SSE,6.9,-,N/A,,Clear,150,2013-09-01 23:52:00
7:52 PM,93.9,57.0,29,29.78,8.0,SSE,4.6,-,N/A,,Clear,160,2013-09-02 00:52:00
8:52 PM,91.9,57.9,32,29.79,10.0,SSE,5.8,-,N/A,,Clear,150,2013-09-02 01:52:00
9:52 PM,90.0,59.0,35,29.81,10.0,SSE,5.8,-,N/A,,Clear,160,2013-09-02 02:52:00
10:52 PM,88.0,57.9,36,29.81,10.0,SSE,6.9,-,N/A,,Clear,150,2013-09-02 03:52:00
11:52 PM,88.0,61.0,40,29.82,10.0,South,8.1,-,N/A,,Clear,190,2013-09-02 04:52:00